FW7177 Weather Reports


time (UTC)temp
C
wind
direction
speed
KPH
gust
KPH
rain 1hr
cm
rain 24hr
cm
rain mn
cm
humidity
%
barometer
mb
20260506144558 13 0 0.0 0.0 0.00 0.00 0.00 89 1020.6
20260506143111 13 0 0.0 0.0 0.00 0.00 0.00 91 1020.7
20260506141609 12 0 0.0 0.0 0.00 0.00 0.00 91 1020.7
20260506140100 12 0 0.0 0.0 0.00 0.00 0.00 91 1020.4
20260506134557 12 0 0.0 0.0 0.00 0.00 0.00 91 1020.2
20260506133057 12 0 0.0 0.0 0.00 0.00 0.00 91 1020.2
20260506131602 12 0 0.0 0.0 0.00 0.00 0.00 91 1020.1
20260506130140 12 0 0.0 0.0 0.00 0.00 0.00 91 1020.1
20260506124602 12 0 0.0 0.0 0.00 0.00 0.00 91 1020.1
20260506123057 12 0 0.0 0.0 0.00 0.00 0.00 91 1019.8
20260506121556 12 0 0.0 0.0 0.00 0.00 0.00 90 1020.0
20260506120108 12 0 0.0 0.0 0.00 0.00 0.00 90 1019.8
20260506114557 12 0 0.0 0.0 0.00 0.00 0.00 90 1019.7
20260506113059 12 0 0.0 0.0 0.00 0.00 0.00 90 1019.8
20260506111557 12 0 0.0 0.0 0.00 0.00 0.00 90 1019.6
20260506104600 12 0 0.0 0.0 0.00 0.00 0.00 89 1019.4
20260506103100 12 0 0.0 1.6 0.00 0.00 0.00 89 1019.2
20260506101617 12 0 0.0 0.0 0.00 0.00 0.00 89 1019.1
20260506100118 12 0 0.0 1.6 0.00 0.00 0.00 89 1019.0
20260506094559 12 0 0.0 1.6 0.00 0.00 0.00 89 1018.9
20260506093057 12 0 0.0 1.6 0.00 0.00 0.00 89 1018.9
20260506091557 12 65 0.0 1.6 0.00 0.00 0.00 89 1019.0
20260506090059 12 0 0.0 1.6 0.00 0.00 0.00 89 1019.0
20260506084621 12 74 0.0 1.6 0.00 0.00 0.00 89 1019.0
20260506083100 12 0 0.0 3.2 0.00 0.00 0.00 89 1019.2
20260506081603 12 0 0.0 1.6 0.00 0.00 0.00 89 1019.1
20260506073058 12 0 0.0 1.6 0.00 0.00 0.00 88 1018.8
20260506071601 12 0 0.0 3.2 0.00 0.00 0.00 88 1018.7
20260506061600 12 0 0.0 3.2 0.00 0.00 0.00 88 1018.3
20260506044704 13 0 0.0 1.6 0.00 0.00 0.00 86 1017.8
20260506043107 13 73 0.0 1.6 0.00 0.00 0.00 86 1017.5
20260506041603 13 93 0.0 3.2 0.00 0.00 0.00 85 1017.3
20260506040057 13 81 0.0 3.2 0.00 0.00 0.00 83 1017.1
20260506034626 14 108 0.0 3.2 0.00 0.00 0.00 82 1016.9
20260506033102 14 77 0.0 4.8 0.00 0.00 0.00 80 1016.6
20260506031605 15 0 0.0 3.2 0.00 0.00 0.00 79 1016.3
20260506030100 15 0 0.0 4.8 0.00 0.00 0.00 77 1015.9
20260506024556 15 0 0.0 4.8 0.00 0.00 0.00 76 1015.8
20260506023112 16 0 0.0 3.2 0.00 0.00 0.00 75 1015.8
20260506021559 16 267 0.0 3.2 0.00 0.00 0.00 74 1015.6
20260506020059 17 0 0.0 3.2 0.00 0.00 0.00 73 1015.6
20260506014601 17 0 0.0 8.0 0.00 0.00 0.00 72 1015.4
20260506013059 18 294 0.0 6.4 0.00 0.00 0.00 70 1015.4
20260506011617 19 254 0.0 4.8 0.00 0.00 0.00 67 1015.3
20260506010104 18 100 3.2 8.0 0.00 0.00 0.00 70 1015.1
20260506004626 17 250 3.2 6.4 0.00 0.00 0.00 72 1015.2
20260506003111 18 226 1.6 8.0 0.00 0.00 0.00 71 1015.2
20260506001558 18 229 0.0 11.3 0.00 0.00 0.00 72 1015.0
20260506000057 18 337 0.0 6.4 0.00 0.00 0.00 72 1014.9
20260505234637 18 265 0.0 6.4 0.00 0.00 0.00 72 1014.9
20260505233112 18 238 0.0 3.2 0.00 0.00 0.00 71 1015.0
20260505231600 19 54 0.0 6.4 0.00 0.00 0.00 70 1014.9
20260505230105 19 0 0.0 6.4 0.00 0.00 0.00 70 1015.0
20260505224558 19 0 0.0 6.4 0.00 0.00 0.00 69 1015.0
20260505223059 20 0 0.0 3.2 0.00 0.00 0.00 69 1015.0
20260505221557 20 265 1.6 4.8 0.00 0.00 0.00 68 1015.1
20260505220106 18 68 0.0 4.8 0.00 0.00 0.00 72 1015.2
20260505214605 18 269 0.0 4.8 0.00 0.00 0.00 71 1015.4
20260505213102 18 84 1.6 3.2 0.00 0.00 0.00 72 1015.5
20260505211602 18 0 0.0 4.8 0.00 0.00 0.00 73 1015.7
20260505210058 18 252 0.0 3.2 0.00 0.00 0.00 73 1015.7
20260505204608 17 0 0.0 4.8 0.00 0.00 0.00 72 1015.7
20260505203059 17 0 0.0 4.8 0.00 0.00 0.00 73 1015.6
20260505201559 18 0 0.0 4.8 0.00 0.00 0.00 72 1015.8
20260505200104 17 284 0.0 3.2 0.00 0.00 0.00 73 1015.7
20260505194558 17 246 0.0 4.8 0.00 0.00 0.00 74 1015.7
20260505193100 17 243 1.6 6.4 0.00 0.00 0.00 75 1015.7
20260505191601 17 265 0.0 4.8 0.00 0.00 0.00 74 1015.8
20260505190059 17 232 0.0 4.8 0.00 0.00 0.00 76 1015.7
20260505184608 17 255 0.0 1.6 0.00 0.00 0.00 74 1015.8
20260505183100 18 0 0.0 3.2 0.00 0.00 0.00 71 1015.8
20260505181601 17 0 1.6 4.8 0.00 0.00 0.00 74 1015.8
20260505180103 17 0 0.0 4.8 0.00 0.00 0.00 74 1015.7
20260505174613 17 269 0.0 3.2 0.00 0.00 0.00 76 1015.6
20260505173056 17 77 0.0 4.8 0.00 0.00 0.00 75 1015.4
20260505171600 15 261 0.0 3.2 0.00 0.00 0.00 81 1015.5
20260505170138 14 0 0.0 0.0 0.00 0.00 0.00 84 1015.5
20260505164559 14 0 0.0 0.0 0.00 0.00 0.00 86 1015.5
20260505163059 13 0 0.0 0.0 0.00 0.00 0.00 89 1015.4
20260505161604 13 0 0.0 1.6 0.00 0.00 0.00 94 1015.4
20260505153101 12 0 0.0 1.6 0.00 0.00 0.00 96 1015.2
20260505151558 12 0 0.0 1.6 0.00 0.00 0.00 97 1015.1